Bennington, NE

4:54 AM CST on December 08, 2016 (GMT -0600)
Blair Municipal

Weather History for KBTA - October, 2013

Change the Weather History Date:

Saturday, October 12, 2013

  Actual Average (KOMA) Record (KOMA)
Temperature  
Mean Temperature 54 °F 55 °F  
Max Temperature 66 °F 67 °F 95 °F (1975)
Min Temperature 43 °F 43 °F 24 °F (1917)
Degree Days  
Heating Degree Days 10 11  
Month to date heating degree days 109  
Since 1 July heating degree days 212  
Cooling Degree Days 0 1  
Month to date cooling degree days 12  
Year to date cooling degree days 1109  
Growing Degree Days 4 (Base 50)    
Moisture  
Dew Point 33 °F    
Average Humidity 46    
Maximum Humidity 76    
Minimum Humidity 22    
Precipitation  
Precipitation 0.00 in 0.07 in 1.90 in (1879)
Month to date precipitation 0.90  
Year to date precipitation 26.69  
Snow  
Snow 0.00 in 0.00 in - ()
Month to date snowfall 0.1  
Since 1 July snowfall 0.1  
Snow Depth -    
Sea Level Pressure  
Sea Level Pressure 30.12 in    
Wind  
Wind Speed 6 mph (WNW)    
Max Wind Speed 14 mph    
Max Gust Speed 23 mph    
Visibility 10 miles    
Events      
T = Trace of Precipitation, MM = Missing Value Source: NWS Daily Summary

Daily Weather History Graph

Daily Weather History Graph

Search for Another Location

Airport or City:

Trip Planner

Search our weather history database for the weather conditions in past years. The results will help you decide how hot, cold, wet, or windy it might be!

Date:

Astronomy

Oct. 12, 2013 Rise Set
Actual Time 7:33 AM CDT 6:47 PM CDT
Civil Twilight 7:05 AM CDT 7:15 PM CDT
Nautical Twilight 6:33 AM CDT 7:47 PM CDT
Astronomical Twilight 6:01 AM CDT 8:19 PM CDT
Moon 3:01 PM CDT (10/12) 12:33 AM CDT (10/12)
Length of Visible Light 12h 09m
Length of Day
11h 14m
First Quarter, 59% of the Moon is Illuminated
Oct 12
First Quarter
Oct 18
Full
Oct 26
Last Quarter
Nov 3
New
Nov 9
First Quarter

Hourly Weather History & Observations

Time (CDT) Temp. Windchill Dew Point Humidity Pressure Visibility Wind Dir Wind Speed Gust Speed Precip Events Conditions
12:15 AM 51.8 °F - 41.5 °F 68% 29.90 in 10.0 mi West 4.6 mph - N/A   Clear
12:35 AM 51.1 °F - 41.4 °F 69% 29.91 in 10.0 mi West 3.5 mph - N/A   Clear
12:55 AM 50.4 °F - 41.2 °F 71% 29.91 in 10.0 mi WNW 4.6 mph - N/A   Clear
1:15 AM 49.3 °F - 41.0 °F 73% 29.92 in 10.0 mi West 4.6 mph - N/A   Clear
1:35 AM 49.3 °F - 40.6 °F 72% 29.92 in 10.0 mi West 3.5 mph - N/A   Clear
1:55 AM 49.5 °F - 40.5 °F 71% 29.93 in 10.0 mi West 4.6 mph - N/A   Clear
2:15 AM 49.5 °F - 40.1 °F 70% 29.94 in 10.0 mi West 4.6 mph - N/A   Clear
2:35 AM 49.1 °F - 40.1 °F 71% 29.95 in 10.0 mi West 4.6 mph - N/A   Clear
2:55 AM 48.6 °F - 40.1 °F 73% 29.96 in 10.0 mi West 5.8 mph - N/A   Clear
3:15 AM 48.2 °F - 39.7 °F 73% 29.97 in 10.0 mi West 4.6 mph - N/A   Clear
3:35 AM 47.1 °F - 39.6 °F 75% 29.97 in 10.0 mi West 5.8 mph - N/A   Clear
6:15 AM 44.8 °F 42.4 °F 37.6 °F 76% 30.03 in 10.0 mi WNW 4.6 mph - N/A   Clear
6:35 AM 45.5 °F 43.2 °F 37.6 °F 74% 30.04 in 10.0 mi WSW 4.6 mph - N/A   Clear
6:55 AM 44.6 °F 41.4 °F 37.4 °F 76% 30.05 in 10.0 mi West 5.8 mph - N/A   Clear
7:15 AM 44.2 °F 41.8 °F 37.2 °F 76% 30.05 in 10.0 mi West 4.6 mph - N/A   Clear
7:35 AM 43.9 °F 41.3 °F 36.9 °F 76% 30.06 in 10.0 mi WSW 4.6 mph - N/A   Clear
7:55 AM 44.2 °F 41.8 °F 37.0 °F 76% 30.07 in 10.0 mi West 4.6 mph - N/A   Clear
8:15 AM 44.8 °F 41.6 °F 37.0 °F 74% 30.08 in 10.0 mi West 5.8 mph - N/A   Clear
8:35 AM 46.0 °F 43.1 °F 37.4 °F 72% 30.09 in 10.0 mi West 5.8 mph - N/A   Clear
8:55 AM 47.7 °F - 37.4 °F 68% 30.10 in 10.0 mi West 6.9 mph - N/A   Clear
9:15 AM 50.0 °F - 37.4 °F 62% 30.11 in 10.0 mi West 6.9 mph - N/A   Clear
9:35 AM 51.8 °F - 36.9 °F 57% 30.12 in 10.0 mi WSW 8.1 mph - N/A   Clear
9:55 AM 53.1 °F - 35.1 °F 50% 30.13 in 10.0 mi WNW 11.5 mph 17.3 mph N/A   Clear
10:15 AM 53.8 °F - 34.3 °F 48% 30.13 in 10.0 mi West 10.4 mph - N/A   Clear
10:35 AM 55.4 °F - 34.2 °F 45% 30.13 in 10.0 mi WNW 9.2 mph - N/A   Clear
10:55 AM 56.3 °F - 33.6 °F 42% 30.13 in 10.0 mi West 8.1 mph - N/A   Clear
11:15 AM 57.4 °F - 32.4 °F 39% 30.14 in 10.0 mi WNW 9.2 mph - N/A   Clear
11:35 AM 58.8 °F - 32.0 °F 36% 30.14 in 10.0 mi West 9.2 mph 18.4 mph N/A   Clear
11:55 AM 59.5 °F - 32.0 °F 35% 30.15 in 10.0 mi West 9.2 mph - N/A   Clear
12:15 PM 60.6 °F - 31.8 °F 34% 30.15 in 10.0 mi West 6.9 mph - N/A   Clear
12:35 PM 60.8 °F - 32.0 °F 34% 30.16 in 10.0 mi WSW 10.4 mph 16.1 mph N/A   Clear
12:55 PM 62.4 °F - 32.0 °F 32% 30.16 in 10.0 mi WNW 11.5 mph 21.9 mph N/A   Clear
1:15 PM 62.4 °F - 31.1 °F 31% 30.15 in 10.0 mi West 9.2 mph 19.6 mph N/A   Clear
1:35 PM 63.0 °F - 30.9 °F 30% 30.14 in 10.0 mi WNW 11.5 mph 16.1 mph N/A   Clear
1:55 PM 63.9 °F - 30.6 °F 29% 30.14 in 10.0 mi West 10.4 mph 18.4 mph N/A   Clear
2:15 PM 64.6 °F - 28.8 °F 26% 30.13 in 10.0 mi West 13.8 mph 19.6 mph N/A   Clear
2:35 PM 64.9 °F - 26.1 °F 23% 30.13 in 10.0 mi West 11.5 mph 23.0 mph N/A   Clear
2:55 PM 65.3 °F - 25.7 °F 22% 30.13 in 10.0 mi West 8.1 mph 19.6 mph N/A   Clear
3:15 PM 66.0 °F - 27.5 °F 23% 30.13 in 10.0 mi WSW 13.8 mph - N/A   Clear
3:35 PM 65.7 °F - 28.0 °F 24% 30.14 in 10.0 mi West 9.2 mph 16.1 mph N/A   Clear
3:55 PM 65.5 °F - 27.0 °F 23% 30.14 in 10.0 mi WNW 10.4 mph 19.6 mph N/A   Clear
4:15 PM 65.3 °F - 26.6 °F 23% 30.14 in 10.0 mi West 13.8 mph 18.4 mph N/A   Clear
4:35 PM 65.3 °F - 27.5 °F 24% 30.15 in 10.0 mi WNW 10.4 mph - N/A   Clear
4:55 PM 65.5 °F - 28.2 °F 25% 30.15 in 10.0 mi West 9.2 mph - N/A   Clear
5:15 PM 64.9 °F - 27.3 °F 24% 30.16 in 10.0 mi West 9.2 mph - N/A   Clear
5:35 PM 64.6 °F - 27.5 °F 25% 30.16 in 10.0 mi West 5.8 mph - N/A   Clear
5:55 PM 63.9 °F - 27.0 °F 25% 30.17 in 10.0 mi West 6.9 mph - N/A   Clear
6:15 PM 62.6 °F - 28.2 °F 27% 30.17 in 10.0 mi WNW 4.6 mph - N/A   Clear
6:35 PM 60.4 °F - 28.9 °F 30% 30.17 in 10.0 mi WNW 3.5 mph - N/A   Clear
6:55 PM 58.5 °F - 29.3 °F 33% 30.18 in 10.0 mi NW 4.6 mph - N/A   Clear
7:15 PM 57.2 °F - 28.0 °F 33% 30.19 in 10.0 mi NW 5.8 mph - N/A   Clear
7:35 PM 56.3 °F - 27.5 °F 33% 30.19 in 10.0 mi NW 5.8 mph - N/A   Clear
7:55 PM 54.7 °F - 27.9 °F 36% 30.19 in 10.0 mi NW 5.8 mph - N/A   Clear
8:15 PM 54.3 °F - 28.6 °F 37% 30.20 in 10.0 mi NNW 6.9 mph - N/A   Clear
8:35 PM 53.6 °F - 28.8 °F 39% 30.20 in 10.0 mi NNW 8.1 mph - N/A   Clear
8:55 PM 54.0 °F - 28.4 °F 37% 30.21 in 10.0 mi NNW 8.1 mph - N/A   Clear
9:15 PM 53.6 °F - 28.6 °F 38% 30.22 in 10.0 mi NNW 8.1 mph - N/A   Clear
9:35 PM 53.4 °F - 28.4 °F 38% 30.23 in 10.0 mi North 8.1 mph - N/A   Clear
9:55 PM 53.2 °F - 28.4 °F 38% 30.23 in 10.0 mi North 6.9 mph - N/A   Clear
10:15 PM 52.5 °F - 28.9 °F 40% 30.24 in 10.0 mi North 5.8 mph - N/A   Clear
10:35 PM 52.2 °F - 28.9 °F 41% 30.25 in 10.0 mi North 5.8 mph - N/A   Clear
10:55 PM 51.6 °F - 28.9 °F 42% 30.25 in 10.0 mi North 5.8 mph - N/A   Clear
11:15 PM 50.5 °F - 29.5 °F 44% 30.26 in 10.0 mi North 6.9 mph - N/A   Clear
11:35 PM 50.0 °F - 29.8 °F 46% 30.27 in 7.0 mi North 6.9 mph - N/A   Clear
11:55 PM 50.4 °F - 29.8 °F 45% 30.28 in 10.0 mi North 6.9 mph - N/A   Clear